When you browse on this site, cookies collect data to enhance your experience and personalize the content and advertising you see.
Visit our Privacy Policy to learn more. By continuing to use the site, you agree to this use of cookies and data.
  • In Czech Republic
  • List of Countries
  • For 7 days
  • Water Temperature
  • Weather Map
  • Weather Widgets
  • user-avatar
    Login

    Hourly Weather Goteborg

    Today, 24 September, Tuesday

    Time Temperature Precipitation Wind Pressure Humidity
    00:00 +6°C° 0 mm 4 mps 762 mmHg 80%
    01:00 +7°C° 0 mm 3 mps 762 mmHg 87%
    02:00 +5°C° 0 mm 3 mps 762 mmHg 89%
    03:00 +5°C° 0 mm 3 mps 761 mmHg 90%
    04:00 +5°C° 0 mm 3 mps 761 mmHg 92%
    05:00 +5°C° 0 mm 3 mps 761 mmHg 92%
    06:00 +5°C° 0 mm 3 mps 760 mmHg 92%
    07:00 +5°C° 0 mm 3 mps 760 mmHg 93%
    08:00 +9°C° 0 mm 2 mps 760 mmHg 86%
    09:00 +12°C° 0 mm 2 mps 760 mmHg 80%
    10:00 +14°C° 0 mm 2 mps 759 mmHg 74%
    11:00 +15°C° 0 mm 2 mps 759 mmHg 73%
    12:00 +16°C° 0 mm 1 mps 759 mmHg 72%
    13:00 +16°C° 0 mm 1 mps 759 mmHg 71%
    14:00 +16°C° 0 mm 2 mps 759 mmHg 72%
    15:00 +16°C° 0 mm 2 mps 758 mmHg 74%
    16:00 +15°C° 0 mm 2 mps 758 mmHg 76%
    17:00 +14°C° 0 mm 3 mps 758 mmHg 80%
    18:00 +13°C° 0 mm 3 mps 757 mmHg 84%
    19:00 +12°C° 0 mm 3 mps 757 mmHg 87%
    20:00 +12°C° 0 mm 3 mps 757 mmHg 87%
    21:00 +12°C° 0 mm 3 mps 757 mmHg 86%
    22:00 +12°C° 0 mm 3 mps 757 mmHg 85%
    23:00 +12°C° 0.1 mm 3 mps 757 mmHg 87%

    Tomorrow, 25 September, Wednesday

    Time Temperature Precipitation Wind Pressure Humidity
    00:00 +12°C° 0.1 mm 3 mps 757 mmHg 88%
    01:00 +11°C° 0.1 mm 3 mps 756 mmHg 90%
    02:00 +11°C° 0 mm 3 mps 756 mmHg 91%
    03:00 +10°C° 0 mm 3 mps 756 mmHg 91%
    04:00 +10°C° 0 mm 4 mps 756 mmHg 92%
    05:00 +10°C° 0 mm 4 mps 756 mmHg 91%
    06:00 +10°C° 0 mm 4 mps 755 mmHg 89%
    07:00 +10°C° 0 mm 4 mps 755 mmHg 87%
    08:00 +11°C° 0 mm 4 mps 756 mmHg 84%
    09:00 +12°C° 0 mm 4 mps 756 mmHg 81%
    10:00 +13°C° 0 mm 5 mps 756 mmHg 78%
    11:00 +13°C° 0 mm 5 mps 756 mmHg 78%
    12:00 +14°C° 0 mm 4 mps 756 mmHg 77%
    13:00 +14°C° 0 mm 4 mps 756 mmHg 76%
    14:00 +14°C° 0.1 mm 4 mps 756 mmHg 76%
    15:00 +16°C° 0.1 mm 3 mps 756 mmHg 76%
    16:00 +16°C° 0.1 mm 3 mps 756 mmHg 76%
    17:00 +16°C° 0 mm 3 mps 756 mmHg 77%
    18:00 +14°C° 0 mm 3 mps 756 mmHg 78%
    19:00 +13°C° 0 mm 3 mps 756 mmHg 80%
    20:00 +13°C° 0 mm 4 mps 756 mmHg 82%
    21:00 +12°C° 0 mm 4 mps 757 mmHg 85%
    22:00 +11°C° 0 mm 4 mps 757 mmHg 87%
    23:00 +10°C° 0 mm 4 mps 757 mmHg 89%

    Day after tomorrow, 26 September, Thursday

    Time Temperature Precipitation Wind Pressure Humidity
    00:00 +9°C° 0 mm 5 mps 757 mmHg 91%
    01:00 +8°C° 0 mm 5 mps 757 mmHg 92%
    02:00 +8°C° 0 mm 5 mps 757 mmHg 91%
    03:00 +8°C° 0 mm 5 mps 757 mmHg 90%
    04:00 +8°C° 0 mm 5 mps 757 mmHg 89%
    05:00 +9°C° 0 mm 5 mps 757 mmHg 88%
    06:00 +9°C° 0 mm 5 mps 757 mmHg 87%
    07:00 +9°C° 0 mm 5 mps 757 mmHg 85%
    08:00 +10°C° 0 mm 5 mps 757 mmHg 80%
    09:00 +13°C° 0 mm 5 mps 758 mmHg 75%
    10:00 +14°C° 0 mm 5 mps 758 mmHg 70%
    11:00 +15°C° 0 mm 4 mps 758 mmHg 69%
    12:00 +15°C° 0 mm 4 mps 758 mmHg 67%
    13:00 +17°C° 0 mm 3 mps 758 mmHg 65%
    14:00 +17°C° 0 mm 3 mps 757 mmHg 67%
    15:00 +17°C° 0 mm 3 mps 757 mmHg 69%
    16:00 +17°C° 0 mm 2 mps 757 mmHg 71%
    17:00 +17°C° 0 mm 3 mps 757 mmHg 73%
    18:00 +15°C° 0 mm 4 mps 757 mmHg 75%
    19:00 +14°C° 0 mm 4 mps 757 mmHg 78%
    20:00 +13°C° 0 mm 5 mps 757 mmHg 81%
    21:00 +13°C° 0 mm 5 mps 757 mmHg 85%
    22:00 +11°C° 0 mm 6 mps 757 mmHg 88%
    23:00 +11°C° 0 mm 6 mps 757 mmHg 89%

    27 September, Friday

    Time Temperature Precipitation Wind Pressure Humidity
    00:00 +11°C° 0 mm 6 mps 756 mmHg 89%
    01:00 +11°C° 0 mm 6 mps 756 mmHg 89%
    02:00 +12°C° 0 mm 7 mps 755 mmHg 89%
    03:00 +12°C° 0 mm 7 mps 755 mmHg 88%
    04:00 +12°C° 0 mm 7 mps 754 mmHg 88%
    05:00 +12°C° 1 mm 8 mps 754 mmHg 89%
    06:00 +12°C° 1 mm 8 mps 753 mmHg 91%
    07:00 +12°C° 1 mm 8 mps 753 mmHg 92%
    08:00 +12°C° 2.4 mm 7 mps 753 mmHg 93%
    09:00 +12°C° 2.4 mm 7 mps 753 mmHg 94%
    10:00 +14°C° 2.4 mm 6 mps 753 mmHg 95%
    11:00 +14°C° 0.3 mm 5 mps 753 mmHg 92%
    12:00 +15°C° 0.3 mm 4 mps 753 mmHg 89%
    13:00 +17°C° 0.3 mm 3 mps 753 mmHg 85%
    14:00 +17°C° 0.1 mm 3 mps 752 mmHg 84%
    15:00 +17°C° 0.1 mm 3 mps 752 mmHg 82%
    16:00 +17°C° 0.1 mm 3 mps 752 mmHg 81%
    17:00 +14°C° 0 mm 3 mps 752 mmHg 85%
    18:00 +13°C° 0 mm 3 mps 752 mmHg 90%
    19:00 +12°C° 0 mm 3 mps 752 mmHg 95%
    20:00 +11°C° 0.1 mm 3 mps 752 mmHg 95%
    21:00 +11°C° 0.1 mm 3 mps 752 mmHg 95%
    22:00 +11°C° 0.1 mm 3 mps 752 mmHg 96%
    23:00 +11°C° 0.1 mm 3 mps 752 mmHg 95%

    28 September, Saturday

    Time Temperature Precipitation Wind Pressure Humidity
    00:00 +12°C° 0.1 mm 2 mps 752 mmHg 94%
    01:00 +12°C° 0.1 mm 2 mps 751 mmHg 94%
    02:00 +11°C° 0.1 mm 3 mps 751 mmHg 94%
    03:00 +11°C° 0.1 mm 3 mps 751 mmHg 93%
    04:00 +12°C° 0.1 mm 3 mps 751 mmHg 93%
    05:00 +12°C° 0.2 mm 3 mps 751 mmHg 94%
    06:00 +12°C° 0.2 mm 4 mps 750 mmHg 95%
    07:00 +12°C° 0.2 mm 4 mps 750 mmHg 96%
    08:00 +13°C° 0.1 mm 4 mps 750 mmHg 90%
    09:00 +14°C° 0.1 mm 4 mps 750 mmHg 85%
    10:00 +15°C° 0.1 mm 4 mps 750 mmHg 80%
    11:00 +14°C° 0.4 mm 4 mps 749 mmHg 83%
    12:00 +14°C° 0.4 mm 4 mps 749 mmHg 86%
    13:00 +13°C° 0.4 mm 5 mps 749 mmHg 90%
    14:00 +13°C° 0.4 mm 5 mps 748 mmHg 90%
    15:00 +13°C° 0.4 mm 5 mps 748 mmHg 91%
    16:00 +13°C° 0.4 mm 5 mps 748 mmHg 92%
    17:00 +12°C° 0.9 mm 5 mps 747 mmHg 92%
    18:00 +12°C° 0.9 mm 5 mps 747 mmHg 93%
    19:00 +12°C° 0.9 mm 5 mps 747 mmHg 94%
    20:00 +12°C° 0.5 mm 5 mps 747 mmHg 94%
    21:00 +12°C° 0.5 mm 5 mps 747 mmHg 94%
    22:00 +11°C° 0.5 mm 6 mps 748 mmHg 94%
    23:00 +11°C° 0.2 mm 6 mps 748 mmHg 93%

    29 September, Sunday

    Time Temperature Precipitation Wind Pressure Humidity
    00:00 +11°C° 0.2 mm 6 mps 748 mmHg 91%
    01:00 +11°C° 0.2 mm 7 mps 748 mmHg 90%
    02:00 +10°C° 0.1 mm 6 mps 748 mmHg 91%
    03:00 +10°C° 0.1 mm 6 mps 748 mmHg 92%
    04:00 +9°C° 0.1 mm 6 mps 748 mmHg 93%
    05:00 +10°C° 0.2 mm 6 mps 748 mmHg 93%
    06:00 +10°C° 0.2 mm 7 mps 748 mmHg 92%
    07:00 +10°C° 0.2 mm 7 mps 748 mmHg 91%
    08:00 +11°C° 0.2 mm 7 mps 748 mmHg 89%
    09:00 +11°C° 0.2 mm 7 mps 748 mmHg 86%
    10:00 +12°C° 0.2 mm 7 mps 748 mmHg 84%
    11:00 +12°C° 0.3 mm 7 mps 748 mmHg 83%
    12:00 +12°C° 0.3 mm 7 mps 748 mmHg 82%
    13:00 +14°C° 0.3 mm 6 mps 748 mmHg 81%
    14:00 +13°C° 0.1 mm 6 mps 748 mmHg 81%
    15:00 +13°C° 0.1 mm 5 mps 747 mmHg 82%
    16:00 +13°C° 0.1 mm 5 mps 747 mmHg 82%
    17:00 +12°C° 0.1 mm 4 mps 747 mmHg 87%
    18:00 +11°C° 0.1 mm 4 mps 747 mmHg 91%
    19:00 +10°C° 0.1 mm 3 mps 747 mmHg 95%
    20:00 +10°C° 0 mm 3 mps 747 mmHg 96%
    21:00 +10°C° 0 mm 3 mps 746 mmHg 96%
    22:00 +10°C° 0 mm 3 mps 746 mmHg 96%
    23:00 +10°C° 0 mm 3 mps 746 mmHg 96%
    Show more